Weather History for KAPF - September, 2013

Change the Weather History Date:

Sunday, September 29, 2013

  Actual Average Record
Temperature  
Mean Temperature 80 °F 81 °F  
Max Temperature 88 °F 89 °F 95 °F (1989)
Min Temperature 72 °F 73 °F 65 °F (1983)
Degree Days  
Heating Degree Days 0 0  
Month to date heating degree days 0 0  
Since 1 July heating degree days 0 0  
Cooling Degree Days 15 16  
Month to date cooling degree days 489 505  
Year to date cooling degree days 3184 3162  
Growing Degree Days 30 (Base 50)    
Moisture  
Dew Point 72 °F    
Average Humidity 80    
Maximum Humidity 100    
Minimum Humidity 59    
Precipitation  
Precipitation T in 0.22 in 6.93 in (2003)
Month to date precipitation 10.83 7.46  
Year to date precipitation 46.84 43.98  
Snow  
Snow 0.00 in - - ()
Month to date snowfall 0.0  
Since 1 July snowfall 0.0  
Since 1 September snowfall 0.0  
Snow Depth 0.00 in    
Sea Level Pressure  
Sea Level Pressure 29.93 in    
Wind  
Wind Speed 7 mph (East)    
Max Wind Speed 13 mph    
Max Gust Speed 18 mph    
Visibility 10 miles    
Events      
T = Trace of Precipitation, MM = Missing Value Source: NWS Daily Summary

Daily Weather History Graph

Daily Weather History Graph

Search for Another Location

Airport or City:

Trip Planner

Search our weather history database for the weather conditions in past years. The results will help you decide how hot, cold, wet, or windy it might be!

Date:

Astronomy

Sep. 29, 2013 Rise Set
Actual Time 7:18 AM EDT 7:15 PM EDT
Civil Twilight 6:55 AM EDT 7:38 PM EDT
Nautical Twilight 6:28 AM EDT 8:05 PM EDT
Astronomical Twilight 6:02 AM EDT 8:32 PM EDT
Moon 2:24 AM EDT (9/29) 3:47 PM EDT (9/29)
Length of Visible Light 12h 42m
Length of Day
11h 56m
Waning Crescent, 27% of the Moon is Illuminated
Sep 29
Waning Crescent
Oct 4
New
Oct 11
First Quarter
Oct 18
Full
Oct 26
Last Quarter

Hourly Weather History & Observations

Time (EDT) Temp. Heat Index Dew Point Humidity Pressure Visibility Wind Dir Wind Speed Gust Speed Precip Events Conditions
12:53 AM 75.0 °F - 73.0 °F 94% 29.95 in 10.0 mi ENE 4.6 mph - N/A   Partly Cloudy
1:53 AM 75.0 °F - 72.0 °F 90% 29.94 in 10.0 mi ENE 6.9 mph - N/A   Mostly Cloudy
2:53 AM 75.0 °F - 71.1 °F 87% 29.93 in 10.0 mi ENE 5.8 mph - N/A   Partly Cloudy
3:53 AM 73.9 °F - 71.1 °F 91% 29.92 in 10.0 mi ENE 6.9 mph - N/A   Clear
4:53 AM 73.0 °F - 71.1 °F 93% 29.92 in 10.0 mi NE 4.6 mph - N/A   Clear
5:53 AM 73.0 °F - 71.1 °F 93% 29.94 in 10.0 mi ENE 5.8 mph - N/A   Clear
6:53 AM 72.0 °F - 71.1 °F 97% 29.94 in 10.0 mi ENE 4.6 mph - N/A   Clear
7:53 AM 73.0 °F - 72.0 °F 96% 29.95 in 9.0 mi ENE 5.8 mph - N/A   Clear
8:53 AM 77.0 °F - 72.0 °F 84% 29.96 in 10.0 mi ENE 9.2 mph - N/A   Clear
9:53 AM 81.0 °F 85.2 °F 72.0 °F 74% 29.97 in 10.0 mi ENE 9.2 mph - N/A   Clear
10:53 AM 82.9 °F 87.5 °F 71.1 °F 67% 29.97 in 10.0 mi East 11.5 mph - N/A   Clear
11:53 AM 84.9 °F 90.7 °F 72.0 °F 65% 29.96 in 10.0 mi East 8.1 mph - N/A   Scattered Clouds
12:53 PM 87.1 °F 93.6 °F 72.0 °F 61% 29.95 in 10.0 mi East 10.4 mph - N/A   Partly Cloudy
1:53 PM 87.1 °F 92.8 °F 71.1 °F 59% 29.91 in 10.0 mi ENE 9.2 mph - N/A   Scattered Clouds
2:53 PM 84.0 °F 89.6 °F 72.0 °F 67% 29.89 in 10.0 mi SSW 6.9 mph - N/A   Overcast
3:53 PM 84.0 °F 89.6 °F 72.0 °F 67% 29.88 in 10.0 mi SW 8.1 mph - N/A   Overcast
4:53 PM 82.9 °F 88.8 °F 73.0 °F 72% 29.88 in 10.0 mi SW 5.8 mph - 0.00 in   Overcast
5:53 PM 84.0 °F 89.0 °F 71.1 °F 65% 29.88 in 10.0 mi West 4.6 mph - N/A   Mostly Cloudy
6:53 PM 81.0 °F 84.9 °F 71.1 °F 72% 29.90 in 10.0 mi SSE 10.4 mph - N/A   Mostly Cloudy
7:53 PM 78.1 °F - 72.0 °F 81% 29.92 in 10.0 mi SSE 5.8 mph - N/A   Scattered Clouds
8:53 PM 78.1 °F - 72.0 °F 81% 29.93 in 10.0 mi East 3.5 mph - N/A   Scattered Clouds
9:53 PM 77.0 °F - 72.0 °F 84% 29.95 in 10.0 mi East 4.6 mph - N/A   Scattered Clouds
10:53 PM 77.0 °F - 71.1 °F 82% 29.96 in 10.0 mi East 4.6 mph - N/A   Partly Cloudy
11:53 PM 75.9 °F - 72.0 °F 87% 29.96 in 10.0 mi East 5.8 mph - N/A   Clear